Location: *
(37.5724°S, 58.0067°E)
Time: 07:29:09
(UTC+00:00)

Cosmos 1933 Rocket - Visible Passes

Search period start: 22 January 2021 00:00
Search period end: 01 February 2021 00:00
Orbit: 605 x 631 km, 82.5° (Epoch: 21 January)

Date Brightness Start Highest point End Pass type
(mag) Time Alt. Az. Time Alt. Az. Time Alt. Az.
22 Jan 5.8 18:37:42 10° SSE 18:39:33 17° SE 18:39:33 17° SE visible
22 Jan 5.8 20:14:52 10° SSW 20:16:41 21° SW 20:16:41 21° SW visible
23 Jan 5.4 18:54:07 10° S 18:56:32 26° SE 18:56:32 26° SE visible
23 Jan 6.3 20:32:49 10° SW 20:33:40 13° SW 20:33:40 13° SW visible
24 Jan 5.2 19:10:58 10° S 19:13:31 33° S 19:13:31 33° S visible
25 Jan 6.1 17:53:07 10° SE 17:53:23 10° ESE 17:53:23 10° ESE visible
25 Jan 5.4 19:28:07 10° SSW 19:30:31 30° SSW 19:30:31 30° SSW visible
26 Jan 5.6 18:08:21 10° SSE 18:10:24 18° SE 18:10:24 18° SE visible
26 Jan 5.8 19:45:36 10° SSW 19:47:32 21° SW 19:47:32 21° SW visible
27 Jan 5.2 18:24:48 10° S 18:27:25 28° SE 18:27:25 28° SE visible
27 Jan 6.3 20:03:35 10° SW 20:04:33 13° WSW 20:04:33 13° WSW visible
28 Jan 4.9 18:41:40 10° S 18:44:27 36° S 18:44:27 36° S visible
29 Jan 6.0 17:23:38 10° SE 17:24:22 11° ESE 17:24:22 11° ESE visible
29 Jan 5.2 18:58:50 10° SSW 19:01:30 34° SSW 19:01:30 34° SSW visible
30 Jan 5.4 17:39:00 10° SSE 17:41:26 19° SE 17:41:26 19° SE visible
30 Jan 5.7 19:16:19 10° SSW 19:18:34 23° SW 19:18:34 23° SW visible
31 Jan 4.8 17:55:29 10° S 17:58:30 32° SE 17:58:30 32° SE visible
31 Jan 6.3 19:34:22 10° SW 19:35:38 14° WSW 19:35:38 14° WSW visible
